This demonstration page uses our WeatherBlox Daily Observations layout. Learn more.

Left ArrowRight Arrow

Hourly Observations for November 30, 2022

Temp ( °F °C ) Dew Point ( °F °C ) Humidity (%) Winds ( mph kmh ) Pressure ( in mb ) Visibility ( mi km ) Precip ( " mm )
12:52 am 00:52 Clear 19 -7.2 9 -12.8 64 64 WNW 12 19 30.15 1021 10 16 0.00 0.00
1:52 am 01:52 Clear 19 -7.2 8 -13.3 62 62 W 13 20 30.17 1022 10 16 0.00 0.00
2:52 am 02:52 Clear 19 -7.2 8 -13.3 62 62 WNW 14 22 30.20 1023 10 16 0.00 0.00
3:52 am 03:52 Clear 19 -7.2 7 -13.9 59 59 W 13 20 30.23 1024 10 16 0.00 0.00
4:52 am 04:52 Clear 17 -8.3 7 -13.9 64 64 W 10 17 30.26 1025 10 16 0.00 0.00
5:52 am 05:52 Clear 17 -8.3 7 -13.9 64 64 WNW 12 19 30.27 1025 10 16 0.00 0.00
6:52 am 06:52 Clear 16 -8.9 6 -14.4 64 64 W 9 15 30.31 1026 10 16 0.00 0.00
7:52 am 07:52 Sunny 17 -8.3 6 -14.4 61 61 W 9 15 30.35 1028 10 16 0.00 0.00
8:52 am 08:52 Sunny 19 -7.2 6 -14.4 56 56 WNW 15 24 30.37 1028 10 16 0.00 0.00
9:52 am 09:52 Sunny 21 -6.1 8 -13.3 57 57 NW 15 24 30.39 1029 10 16 0.00 0.00
10:52 am 10:52 Sunny 23 -5 9 -12.8 54 54 NW 17 28 30.42 1030 10 16 0.00 0.00
11:52 am 11:52 Sunny 24 -4.4 9 -12.8 52 52 WNW 16 26 30.41 1030 10 16 0.00 0.00
12:52 pm 12:52 Sunny 25 -3.9 10 -12.2 52 52 W 17 28 30.41 1030 10 16 0.00 0.00
1:52 pm 13:52 Sunny 27 -2.8 11 -11.7 50 50 WNW 13 20 30.41 1030 10 16 0.00 0.00
2:52 pm 14:52 Sunny 28 -2.2 11 -11.7 48 48 W 14 22 30.41 1030 10 16 0.00 0.00
3:52 pm 15:52 Sunny 27 -2.8 11 -11.7 50 50 W 8 13 30.41 1030 10 16 0.00 0.00
4:52 pm 16:52 Sunny 22 -5.6 11 -11.7 62 62 NW 5 7 30.41 1030 10 16 0.00 0.00
5:52 pm 17:52 Clear 21 -6.1 11 -11.7 64 64 Calm 30.42 1030 10 16 0.00 0.00
6:52 pm 18:52 Clear 20 -6.7 11 -11.7 67 67 ESE 3 6 30.43 1031 10 16 0.00 0.00
7:52 pm 19:52 Clear 20 -6.7 11 -11.7 67 67 SE 3 6 30.43 1031 10 16 0.00 0.00
8:52 pm 20:52 Clear 18 -7.8 12 -11.1 77 77 SE 3 6 30.42 1030 10 16 0.00 0.00
9:52 pm 21:52 Clear 18 -7.8 12 -11.1 77 77 SSE 6 9 30.43 1030 10 16 0.00 0.00
10:52 pm 22:52 Clear 17 -8.3 10 -12.2 73 73 SSE 6 9 30.42 1030 10 16 0.00 0.00
11:52 pm 23:52 Clear 18 -7.8 10 -12.2 71 71 S 8 13 30.40 1029 10 16 0.00 0.00

Powered by AerisWeather